Regional Weather Roundup
Issued by NWS Green Bay, WI

Home | Current Version | Previous Version | Text Only | Print | Product List | Glossary On
Versions: 1 2 3 4 5 6 7 8 9 10 11 12 13 14 15 16 17 18 19 20 21 22 23 24 25 26 27 28 29 30 31 32 33 34 35 36 37 38 39 40 41 42 43 44 45 46 47 48 49 50
000
ASUS43 KGRB 050110
RWRGRB

NORTH-CENTRAL AND NORTHEAST WISCONSIN REGIONAL WEATHER ROUNDUP
NATIONAL WEATHER SERVICE GREEN BAY WI
700 PM CST WED MAR 04 2015

WIZ005-009-010>012-018-019-050200-
NORTH CENTRAL WISCONSIN

CITY           SKY/WX    TMP DP  RH WIND       PRES   REMARKS
IRONWOOD       CLOUDY     1  -8  66 W12       30.17R WCI -15
MANITOWISH WTR CLEAR     -4 -15  59 NW5       30.15R WCI -15
ARBOR VITAE    CLEAR      1  -7  67 NW6       30.15R WCI -10
EAGLE RIVER    CLEAR     -1 -14  53 NW6       30.13R WCI -12
LAND O LAKES   CLEAR     -1 -13  55 NW6       30.13R WCI -12
RHINELANDER    CLEAR      0 -11  59 NW5       30.14R WCI -10
PHILLIPS       CLEAR      0 -12  56 CALM      30.17R
ANTIGO         CLEAR      1 -12  53 NW8       30.15R WCI -13
TOMAHAWK       CLEAR      0 -13  54 CALM      30.16R
MERRILL        CLEAR      4 -12  46 NW9       30.17R WCI -10
$$

WIZ013-073-050200-
NORTHEAST WISCONSIN

CITY           SKY/WX    TMP DP  RH WIND       PRES   REMARKS
IRON MOUNTAIN  CLEAR      2 -12  52 NW12      30.15R WCI -15
MARINETTE      CLEAR      9 -11  40 N8        30.20R WCI  -4
OCONTO           N/A      9 -12  38 NW6       30.22R WCI  -1
$$

WIZ017-030-035>037-045-050200-
CENTRAL WISCONSIN

CITY           SKY/WX    TMP DP  RH WIND       PRES   REMARKS
MEDFORD        CLEAR      1 -13  51 NW5       30.17R WCI  -8
WAUSAU         CLEAR      4 -12  48 W9        30.17R WCI -10
MOSINEE        CLEAR      3 -11  51 W7        30.19R WCI  -9
MARSHFIELD     CLEAR      4 -11  50 NW12      30.21R WCI -12
WISC RAPIDS    CLEAR      7 -10  46 N6        30.25R WCI  -3
STEVENS POINT  CLEAR      5 -13  43 W8        30.22R WCI  -8
WAUPACA        CLEAR     10 -10  38 W7        30.24R WCI   0
SHAWANO        CLEAR     10 -12  36 W3        30.22R
CLINTONVILLE   CLEAR      9  -9  43 W7        30.22R WCI  -3
$$

WIZ038-039-048-051-050200-
FOX VALLEY

CITY           SKY/WX    TMP DP  RH WIND       PRES   REMARKS
NWS GREEN BAY  CLEAR      7  -8  50 W10       30.23R WCI  -8
APPLETON       CLEAR      9 -11  40 NW15      30.21R WCI  -8
OSHKOSH        CLEAR     10  -7  46 NW10      30.20R WCI  -4
FOND DU LAC    CLEAR     10  -7  46 NW8       30.21R WCI  -2
$$

WIZ022-050-052-050200-
EAST CENTRAL WISCONSIN

CITY           SKY/WX    TMP DP  RH WIND       PRES   REMARKS
STURGEON BAY   CLEAR      7 -11  43 NW9       30.22R WCI  -7
MANITOWOC      PTCLDY     9  -8  46 NW12      30.22R WCI  -6
SHEBOYGAN      PTCLDY    11  -8  42 NW10      30.21R WCI  -3
$$

LMZ563-521-522-541>543-050200-
LAKESHORE

STATION/POSITION TIME  TEMP    WIND        PRES    VSBY  WAVE
                       AIR SEA DIR/SP/G                  HT/PER
                 (UTC) (F)     (DEG/KT/KT) (MB)    (MI)  (FT/S)
SHEBOYGAN LKSHOR 0100   13     310/  9/ 12 1025.0R
KEWAUNEE LKSHORE 0100   10     280/  4/  9 1022.0R
NORTHPORT PIER   0100   12     320/ 18/ 23 1022.4R
SISTER BAY LKSHO 0000    7     330/ 15/ 17   N/A
CHAMBERS ISLAND  0100    7     300/  9/ 12 1022.7R
MENOMINEE LKSHOR 0100    8     300/ 11     1023.5R
$$


USA.gov is the U.S. government's official web portal to all federal, state and local government web resources and services.